QPF
0.10 0.10 0.10 0.11 0.10 0.12 0.16 0.16 0.12 0.07 0.06 0.04 0.04 0.04 0.05 0.06 0.07 0.05 0.04 0.05 0.03 0.04 0.04 0.03 0.03 0.04 0.06 0.05 0.06 0.05 0.06 0.06 0.05 0.05 0.04 0.04 0.04 0.04 0.04 0.04 0.05 0.05 0.05
0.08 0.06 0.07 0.12 0.10 0.10 0.13 0.13 0.08 0.06 0.05 0.05 0.05 0.04 0.06 0.06 0.07 0.05 0.03 0.05 0.05 0.04 0.05 0.05 0.05 0.05 0.05 0.05 0.05 0.06 0.06 0.05 0.04 0.03 0.03 0.03 0.03 0.03 0.03 0.04 0.05 0.04 0.04
0.05 0.05 0.07 0.11 0.12 0.10 0.09 0.08 0.06 0.06 0.05 0.05 0.04 0.04 0.05 0.05 0.05 0.05 0.04 0.05 0.06 0.07 0.05 0.05 0.05 0.06 0.06 0.06 0.06 0.05 0.04 0.04 0.05 0.05 0.05 0.04 0.06 0.06 0.04 0.05 0.06 0.05 0.04
0.03 0.03 0.04 0.09 0.11 0.07 0.06 0.05 0.06 0.05 0.03 0.02 0.03 0.02 0.03 0.04 0.05 0.04 0.06 0.09 0.05 0.06 0.06 0.06 0.05 0.04 0.04 0.05 0.07 0.06 0.04 0.04 0.05 0.05 0.05 0.06 0.06 0.06 0.07 0.08 0.07 0.08 0.07
0.02 0.02 0.04 0.06 0.06 0.05 0.04 0.03 0.03 0.03 0.02 0.02 0.02 0.03 0.04 0.04 0.05 0.06 0.05 0.04 0.04 0.06 0.05 0.04 0.03 0.02 0.03 0.05 0.05 0.04 0.04 0.04 0.03 0.03 0.04 0.06 0.06 0.07 0.07 0.07 0.07 0.07 0.06
0.01 0.01 0.02 0.02 0.02 0.03 0.04 0.03 0.03 0.03 0.03 0.04 0.04 0.04 0.06 0.04 0.04 0.08 0.09 0.07 0.07 0.06 0.06 0.05 0.02 0.02 0.05 0.05 0.04 0.04 0.03 0.03 0.03 0.03 0.03 0.03 0.05 0.06 0.06 0.06 0.05 0.05 0.05
0.00 0.01 0.01 0.01 0.02 0.03 0.04 0.03 0.04 0.05 0.05 0.05 0.06 0.06 0.05 0.05 0.05 0.07 0.11 0.06 0.05 0.04 0.04 0.05 0.04 0.03 0.04 0.03 0.02 0.03 0.04 0.05 0.04 0.04 0.05 0.06 0.07 0.08 0.08 0.06 0.05 0.04 0.04
0.00 0.01 0.01 0.01 0.01 0.02 0.02 0.03 0.04 0.05 0.05 0.06 0.06 0.08 0.08 0.06 0.05 0.06 0.06 0.06 0.07 0.06 0.05 0.05 0.04 0.03 0.02 0.02 0.01 0.03 0.04 0.06 0.08 0.07 0.07 0.09 0.11 0.11 0.10 0.09 0.06 0.05 0.04
0.01 0.01 0.01 0.01 0.01 0.01 0.01 0.02 0.03 0.04 0.05 0.07 0.08 0.07 0.08 0.07 0.04 0.04 0.04 0.05 0.06 0.07 0.07 0.06 0.06 0.06 0.05 0.04 0.03 0.03 0.03 0.04 0.06 0.08 0.09 0.10 0.08 0.07 0.07 0.06 0.06 0.06 0.05
0.01 0.01 0.01 0.01 0.01 0.01 0.01 0.02 0.02 0.04 0.06 0.07 0.08 0.06 0.05 0.04 0.05 0.04 0.04 0.04 0.05 0.07 0.07 0.08 0.08 0.09 0.08 0.07 0.07 0.07 0.07 0.07 0.08 0.11 0.15 0.13 0.10 0.08 0.07 0.08 0.09 0.08 0.06
0.01 0.00 0.00 0.01 0.01 0.01 0.01 0.03 0.04 0.05 0.05 0.05 0.06 0.05 0.05 0.04 0.04 0.03 0.04 0.04 0.04 0.05 0.06 0.08 0.10 0.12 0.12 0.12 0.12 0.12 0.12 0.15 0.15 0.15 0.17 0.12 0.10 0.09 0.08 0.08 0.09 0.11 0.10
0.01 0.01 0.01 0.01 0.01 0.01 0.01 0.03 0.05 0.05 0.04 0.03 0.04 0.03 0.03 0.04 0.04 0.04 0.03 0.03 0.02 0.03 0.04 0.04 0.06 0.08 0.09 0.12 0.15 0.15 0.15 0.15 0.15 0.15 0.14 0.12 0.11 0.10 0.08 0.07 0.08 0.09 0.10
0.01 0.01 0.01 0.02 0.02 0.03 0.04 0.03 0.05 0.05 0.04 0.03 0.02 0.02 0.02 0.03 0.04 0.04 0.04 0.04 0.03 0.03 0.03 0.04 0.04 0.05 0.05 0.07 0.07 0.09 0.11 0.11 0.10 0.10 0.13 0.15 0.15 0.13 0.10 0.07 0.07 0.06 0.07
0.01 0.02 0.02 0.02 0.04 0.05 0.06 0.06 0.04 0.03 0.02 0.02 0.01 0.02 0.02 0.04 0.04 0.04 0.04 0.04 0.04 0.04 0.05 0.04 0.04 0.04 0.05 0.06 0.07 0.08 0.08 0.08 0.07 0.06 0.07 0.08 0.07 0.06 0.06 0.06 0.07 0.06 0.05
0.02 0.02 0.03 0.03 0.04 0.05 0.05 0.04 0.03 0.02 0.01 0.01 0.01 0.02 0.02 0.03 0.05 0.05 0.03 0.04 0.04 0.03 0.04 0.03 0.02 0.04 0.05 0.05 0.06 0.05 0.04 0.05 0.05 0.04 0.04 0.04 0.04 0.03 0.02 0.02 0.02 0.03 0.04
0.05 0.06 0.04 0.03 0.03 0.03 0.03 0.02 0.02 0.01 0.01 0.01 0.02 0.02 0.01 0.02 0.04 0.05 0.04 0.04 0.05 0.04 0.03 0.03 0.04 0.05 0.06 0.04 0.05 0.05 0.04 0.04 0.04 0.03 0.02 0.03 0.02 0.02 0.02 0.01 0.01 0.01 0.01
0.07 0.08 0.04 0.02 0.02 0.02 0.02 0.03 0.02 0.02 0.02 0.02 0.03 0.04 0.03 0.04 0.04 0.04 0.05 0.06 0.07 0.06 0.04 0.04 0.03 0.02 0.03 0.02 0.03 0.03 0.02 0.01 0.01 0.01 0.01 0.01 0.01 0.01 0.01 0.01 0.01 0.01 0.01
0.04 0.05 0.03 0.02 0.01 0.02 0.03 0.03 0.03 0.03 0.03 0.03 0.04 0.04 0.03 0.04 0.03 0.04 0.04 0.05 0.06 0.06 0.04 0.04 0.03 0.02 0.01 0.01 0.01 0.01 0.01 0.00 0.00 0.01 0.01 0.01 0.01 0.01 0.01 0.01 0.01 0.01 0.01
0.03 0.03 0.03 0.03 0.02 0.02 0.03 0.03 0.03 0.03 0.03 0.03 0.03 0.03 0.02 0.03 0.03 0.02 0.02 0.02 0.03 0.04 0.04 0.03 0.03 0.02 0.02 0.01 0.01 0.01 0.01 0.00 0.00 0.00 0.00 0.00 0.01 0.01 0.01 0.01 0.01 0.00 0.00
0.03 0.03 0.03 0.02 0.02 0.02 0.03 0.04 0.04 0.04 0.03 0.03 0.03 0.02 0.02 0.03 0.02 0.01 0.01 0.01 0.02 0.02 0.02 0.02 0.03 0.02 0.02 0.02 0.01 0.01 0.01 0.01 0.01 0.00 0.00 0.00 0.00 0.01 0.01 0.01 0.00 0.00 0.00
0.02 0.02 0.03 0.03 0.03 0.04 0.05 0.05 0.04 0.02 0.02 0.02 0.02 0.02 0.02 0.02 0.02 0.02 0.02 0.02 0.02 0.02 0.01 0.01 0.02 0.02 0.01 0.01 0.01 0.01 0.01 0.01 0.01 0.01 0.01 0.00 0.00 0.00 0.00 0.01 0.01 0.01 0.01
0.02 0.02 0.01 0.01 0.02 0.02 0.02 0.02 0.02 0.01 0.01 0.01 0.02 0.02 0.02 0.03 0.03 0.03 0.03 0.02 0.02 0.02 0.02 0.01 0.01 0.01 0.01 0.01 0.01 0.02 0.01 0.01 0.01 0.00 0.00 0.00 0.01 0.00 0.00 0.01 0.01 0.02 0.01
0.02 0.02 0.01 0.01 0.01 0.01 0.01 0.01 0.02 0.02 0.02 0.02 0.03 0.03 0.03 0.03 0.04 0.03 0.02 0.02 0.01 0.01 0.01 0.01 0.01 0.01 0.02 0.02 0.02 0.02 0.02 0.01 0.01 0.00 0.00 0.00 0.00 0.00 0.00 0.00 0.01 0.01 0.01
0.03 0.02 0.02 0.02 0.02 0.02 0.03 0.03 0.04 0.03 0.03 0.04 0.04 0.04 0.03 0.03 0.04 0.03 0.03 0.02 0.01 0.01 0.02 0.02 0.01 0.02 0.03 0.04 0.04 0.03 0.03 0.02 0.02 0.01 0.00 0.00 0.00 0.00 0.00 0.01 0.01 0.00 0.00
0.03 0.03 0.03 0.03 0.03 0.04 0.05 0.05 0.05 0.05 0.05 0.04 0.05 0.05 0.04 0.05 0.05 0.06 0.05 0.03 0.02 0.02 0.02 0.03 0.02 0.03 0.04 0.04 0.06 0.06 0.05 0.04 0.03 0.01 0.01 0.00 0.00 0.00 0.00 0.00 0.01 0.01 0.01
0.03 0.04 0.03 0.02 0.03 0.03 0.04 0.05 0.06 0.06 0.06 0.05 0.06 0.06 0.07 0.08 0.09 0.07 0.04 0.04 0.03 0.04 0.04 0.03 0.03 0.03 0.03 0.04 0.07 0.06 0.04 0.04 0.03 0.02 0.01 0.01 0.00 0.00 0.00 0.00 0.00 0.00 0.00
MSLP
1010.86 1010.97 1011.04 1011.08 1011.12 1011.18 1011.31 1011.53 1011.84 1012.23 1012.70 1013.20 1013.70 1014.18 1014.61 1014.99 1015.31 1015.58 1015.82 1016.06 1016.31 1016.58 1016.88 1017.21 1017.57 1017.94 1018.29 1018.61 1018.88 1019.10 1019.25 1019.35 1019.43 1019.51 1019.60 1019.72 1019.87 1020.05 1020.24 1020.42 1020.57 1020.69 1020.76
1011.49 1011.62 1011.73 1011.79 1011.85 1011.92 1012.05 1012.24 1012.53 1012.91 1013.37 1013.86 1014.36 1014.83 1015.24 1015.58 1015.83 1016.03 1016.19 1016.35 1016.54 1016.76 1017.05 1017.39 1017.76 1018.15 1018.51 1018.82 1019.06 1019.23 1019.33 1019.38 1019.42 1019.47 1019.56 1019.68 1019.86 1020.05 1020.26 1020.44 1020.58 1020.69 1020.75
1012.05 1012.23 1012.38 1012.51 1012.61 1012.72 1012.87 1013.07 1013.34 1013.70 1014.13 1014.60 1015.07 1015.50 1015.87 1016.15 1016.35 1016.47 1016.55 1016.63 1016.75 1016.92 1017.18 1017.50 1017.86 1018.24 1018.60 1018.89 1019.10 1019.24 1019.30 1019.33 1019.34 1019.38 1019.46 1019.60 1019.78 1019.99 1020.20 1020.38 1020.52 1020.62 1020.67
1012.49 1012.72 1012.94 1013.14 1013.31 1013.48 1013.66 1013.88 1014.15 1014.49 1014.88 1015.30 1015.73 1016.12 1016.45 1016.68 1016.81 1016.87 1016.88 1016.89 1016.93 1017.04 1017.24 1017.52 1017.85 1018.20 1018.52 1018.79 1018.98 1019.10 1019.14 1019.15 1019.16 1019.20 1019.29 1019.44 1019.63 1019.84 1020.04 1020.22 1020.35 1020.44 1020.49
1012.79 1013.06 1013.33 1013.60 1013.86 1014.09 1014.32 1014.56 1014.83 1015.14 1015.50 1015.88 1016.27 1016.62 1016.91 1017.10 1017.20 1017.21 1017.17 1017.11 1017.08 1017.12 1017.24 1017.44 1017.71 1018.00 1018.28 1018.52 1018.69 1018.79 1018.84 1018.85 1018.87 1018.93 1019.02 1019.17 1019.36 1019.56 1019.76 1019.93 1020.05 1020.14 1020.19
1012.96 1013.24 1013.56 1013.89 1014.20 1014.50 1014.77 1015.03 1015.30 1015.59 1015.92 1016.27 1016.62 1016.95 1017.22 1017.41 1017.49 1017.48 1017.40 1017.29 1017.19 1017.14 1017.17 1017.28 1017.45 1017.67 1017.89 1018.08 1018.23 1018.33 1018.39 1018.42 1018.46 1018.54 1018.65 1018.79 1018.97 1019.16 1019.34 1019.49 1019.61 1019.70 1019.77
1013.06 1013.32 1013.65 1014.00 1014.36 1014.69 1014.99 1015.27 1015.53 1015.81 1016.11 1016.44 1016.78 1017.10 1017.38 1017.58 1017.67 1017.66 1017.57 1017.42 1017.26 1017.12 1017.04 1017.04 1017.11 1017.23 1017.38 1017.52 1017.65 1017.75 1017.82 1017.88 1017.95 1018.04 1018.16 1018.30 1018.47 1018.64 1018.79 1018.93 1019.05 1019.14 1019.23
1013.13 1013.35 1013.66 1014.01 1014.38 1014.72 1015.03 1015.30 1015.56 1015.82 1016.10 1016.41 1016.75 1017.09 1017.39 1017.62 1017.75 1017.76 1017.66 1017.49 1017.27 1017.05 1016.87 1016.75 1016.71 1016.73 1016.79 1016.88 1016.98 1017.08 1017.17 1017.25 1017.34 1017.44 1017.57 1017.70 1017.85 1018.00 1018.14 1018.27 1018.38 1018.50 1018.61
1013.23 1013.39 1013.65 1013.98 1014.33 1014.66 1014.95 1015.21 1015.44 1015.68 1015.94 1016.24 1016.58 1016.94 1017.27 1017.54 1017.70 1017.75 1017.67 1017.48 1017.22 1016.94 1016.67 1016.45 1016.29 1016.21 1016.20 1016.23 1016.30 1016.38 1016.47 1016.57 1016.67 1016.78 1016.90 1017.03 1017.16 1017.29 1017.42 1017.54 1017.66 1017.79 1017.94
1013.36 1013.46 1013.67 1013.96 1014.26 1014.56 1014.83 1015.05 1015.26 1015.46 1015.70 1015.99 1016.32 1016.69 1017.04 1017.34 1017.55 1017.63 1017.57 1017.39 1017.11 1016.78 1016.44 1016.14 1015.89 1015.73 1015.64 1015.61 1015.64 1015.70 1015.78 1015.88 1015.98 1016.08 1016.19 1016.30 1016.42 1016.54 1016.66 1016.79 1016.93 1017.09 1017.26
1013.50 1013.56 1013.73 1013.96 1014.23 1014.48 1014.71 1014.89 1015.06 1015.23 1015.43 1015.69 1016.01 1016.37 1016.73 1017.06 1017.29 1017.40 1017.37 1017.21 1016.93 1016.58 1016.21 1015.85 1015.55 1015.32 1015.17 1015.09 1015.07 1015.10 1015.15 1015.22 1015.31 1015.39 1015.48 1015.58 1015.68 1015.80 1015.92 1016.06 1016.23 1016.41 1016.62
1013.62 1013.65 1013.79 1013.99 1014.21 1014.43 1014.61 1014.75 1014.88 1015.00 1015.17 1015.39 1015.68 1016.01 1016.36 1016.69 1016.94 1017.08 1017.08 1016.94 1016.69 1016.36 1015.99 1015.62 1015.29 1015.02 1014.83 1014.70 1014.64 1014.62 1014.63 1014.67 1014.72 1014.77 1014.84 1014.92 1015.02 1015.13 1015.26 1015.42 1015.61 1015.82 1016.04
1013.66 1013.70 1013.82 1014.00 1014.20 1014.38 1014.53 1014.64 1014.72 1014.80 1014.92 1015.10 1015.34 1015.63 1015.95 1016.26 1016.51 1016.67 1016.70 1016.61 1016.41 1016.12 1015.79 1015.45 1015.13 1014.86 1014.64 1014.48 1014.37 1014.31 1014.27 1014.26 1014.26 1014.28 1014.32 1014.38 1014.47 1014.59 1014.73 1014.91 1015.12 1015.34 1015.58
1013.62 1013.67 1013.80 1013.97 1014.15 1014.31 1014.44 1014.52 1014.57 1014.62 1014.70 1014.82 1015.01 1015.25 1015.52 1015.80 1016.04 1016.21 1016.28 1016.24 1016.10 1015.89 1015.63 1015.35 1015.07 1014.82 1014.61 1014.44 1014.30 1014.18 1014.10 1014.03 1013.98 1013.97 1013.98 1014.02 1014.10 1014.22 1014.38 1014.57 1014.78 1015.01 1015.24
1013.48 1013.56 1013.70 1013.87 1014.05 1014.21 1014.32 1014.39 1014.42 1014.44 1014.48 1014.56 1014.69 1014.88 1015.10 1015.34 1015.56 1015.73 1015.83 1015.86 1015.80 1015.68 1015.51 1015.32 1015.11 1014.91 1014.72 1014.55 1014.39 1014.24 1014.11 1014.00 1013.91 1013.86 1013.85 1013.87 1013.95 1014.06 1014.22 1014.41 1014.62 1014.84 1015.06
1013.26 1013.37 1013.52 1013.70 1013.88 1014.04 1014.15 1014.22 1014.25 1014.26 1014.27 1014.31 1014.40 1014.53 1014.70 1014.90 1015.10 1015.27 1015.40 1015.48 1015.50 1015.48 1015.42 1015.32 1015.21 1015.08 1014.93 1014.78 1014.62 1014.46 1014.30 1014.16 1014.04 1013.96 1013.93 1013.94 1014.01 1014.12 1014.26 1014.44 1014.63 1014.82 1015.01
1012.98 1013.11 1013.27 1013.46 1013.64 1013.81 1013.93 1014.01 1014.04 1014.05 1014.06 1014.08 1014.13 1014.22 1014.35 1014.51 1014.67 1014.84 1014.99 1015.12 1015.22 1015.29 1015.32 1015.33 1015.31 1015.26 1015.17 1015.06 1014.92 1014.76 1014.60 1014.45 1014.32 1014.23 1014.18 1014.19 1014.25 1014.34 1014.47 1014.62 1014.78 1014.93 1015.08
1012.67 1012.80 1012.97 1013.15 1013.34 1013.51 1013.64 1013.73 1013.79 1013.82 1013.83 1013.85 1013.88 1013.95 1014.04 1014.16 1014.30 1014.46 1014.62 1014.78 1014.94 1015.07 1015.19 1015.29 1015.35 1015.38 1015.36 1015.30 1015.19 1015.07 1014.92 1014.78 1014.66 1014.58 1014.54 1014.54 1014.59 1014.67 1014.77 1014.89 1015.00 1015.11 1015.22
1012.33 1012.45 1012.61 1012.79 1012.97 1013.14 1013.29 1013.40 1013.48 1013.54 1013.57 1013.60 1013.63 1013.68 1013.75 1013.85 1013.97 1014.11 1014.28 1014.45 1014.63 1014.82 1015.00 1015.16 1015.29 1015.38 1015.42 1015.42 1015.37 1015.28 1015.18 1015.07 1014.98 1014.92 1014.90 1014.90 1014.95 1015.01 1015.09 1015.16 1015.24 1015.30 1015.37
1011.94 1012.06 1012.21 1012.37 1012.55 1012.72 1012.88 1013.01 1013.12 1013.20 1013.26 1013.31 1013.36 1013.41 1013.48 1013.56 1013.67 1013.79 1013.94 1014.11 1014.30 1014.51 1014.71 1014.91 1015.08 1015.22 1015.32 1015.37 1015.38 1015.35 1015.30 1015.24 1015.19 1015.17 1015.16 1015.18 1015.22 1015.27 1015.32 1015.37 1015.41 1015.44 1015.49
1011.51 1011.61 1011.75 1011.90 1012.07 1012.25 1012.41 1012.56 1012.69 1012.80 1012.90 1012.98 1013.06 1013.13 1013.20 1013.29 1013.38 1013.49 1013.62 1013.77 1013.95 1014.14 1014.35 1014.55 1014.74 1014.91 1015.04 1015.14 1015.19 1015.22 1015.23 1015.23 1015.24 1015.25 1015.27 1015.31 1015.35 1015.39 1015.42 1015.44 1015.46 1015.47 1015.51
1011.01 1011.11 1011.24 1011.40 1011.56 1011.73 1011.90 1012.07 1012.23 1012.37 1012.50 1012.62 1012.73 1012.83 1012.93 1013.02 1013.11 1013.21 1013.32 1013.45 1013.59 1013.76 1013.94 1014.12 1014.30 1014.47 1014.62 1014.74 1014.84 1014.92 1014.99 1015.04 1015.09 1015.14 1015.20 1015.25 1015.29 1015.32 1015.34 1015.35 1015.36 1015.38 1015.42
1010.45 1010.57 1010.71 1010.87 1011.04 1011.22 1011.40 1011.58 1011.75 1011.93 1012.10 1012.25 1012.40 1012.54 1012.66 1012.77 1012.87 1012.97 1013.06 1013.16 1013.27 1013.39 1013.52 1013.66 1013.82 1013.97 1014.11 1014.25 1014.37 1014.49 1014.60 1014.70 1014.79 1014.87 1014.95 1015.01 1015.06 1015.08 1015.10 1015.10 1015.11 1015.15 1015.22
1009.86 1010.01 1010.18 1010.36 1010.55 1010.74 1010.93 1011.13 1011.33 1011.53 1011.73 1011.92 1012.11 1012.29 1012.45 1012.58 1012.70 1012.80 1012.88 1012.95 1013.02 1013.09 1013.17 1013.26 1013.36 1013.47 1013.59 1013.72 1013.85 1013.99 1014.12 1014.26 1014.38 1014.49 1014.58 1014.65 1014.69 1014.72 1014.73 1014.74 1014.77 1014.83 1014.95
1009.27 1009.47 1009.69 1009.91 1010.13 1010.35 1010.57 1010.78 1011.00 1011.22 1011.45 1011.68 1011.90 1012.11 1012.30 1012.47 1012.61 1012.71 1012.78 1012.83 1012.86 1012.88 1012.90 1012.93 1012.97 1013.04 1013.13 1013.23 1013.36 1013.50 1013.64 1013.79 1013.93 1014.05 1014.15 1014.22 1014.27 1014.30 1014.32 1014.34 1014.39 1014.49 1014.64
1008.73 1009.01 1009.29 1009.57 1009.83 1010.09 1010.34 1010.58 1010.82 1011.06 1011.30 1011.55 1011.80 1012.04 1012.26 1012.44 1012.59 1012.70 1012.76 1012.79 1012.78 1012.75 1012.72 1012.69 1012.68 1012.69 1012.74 1012.81 1012.92 1013.05 1013.20 1013.36 1013.50 1013.63 1013.74 1013.82 1013.87 1013.90 1013.93 1013.97 1014.05 1014.17 1014.37
Thickness
5773 5772 5770 5770 5769 5768 5767 5765 5763 5762 5761 5759 5758 5756 5754 5752 5750 5749 5748 5747 5746 5745 5744 5743 5742 5740 5738 5737 5735 5734 5732 5732 5730 5728 5726 5725 5724 5723 5721 5720 5719 5718 5717
5774 5772 5770 5769 5768 5767 5765 5764 5762 5761 5759 5757 5756 5754 5752 5750 5749 5748 5747 5746 5745 5743 5743 5742 5741 5739 5738 5736 5734 5733 5731 5730 5728 5727 5725 5724 5722 5721 5720 5719 5717 5716 5715
5774 5772 5770 5768 5767 5765 5764 5762 5760 5759 5757 5755 5753 5752 5751 5749 5748 5746 5745 5744 5743 5742 5741 5740 5739 5738 5737 5735 5733 5732 5730 5728 5727 5725 5724 5722 5721 5719 5718 5717 5716 5715 5713
5775 5773 5770 5768 5766 5765 5763 5760 5758 5756 5754 5752 5750 5750 5749 5748 5746 5744 5743 5742 5741 5740 5739 5738 5737 5736 5735 5733 5732 5730 5728 5727 5725 5724 5722 5720 5719 5718 5716 5715 5714 5713 5712
5775 5773 5770 5768 5766 5764 5762 5760 5757 5755 5752 5750 5749 5748 5747 5746 5744 5743 5741 5740 5738 5737 5736 5736 5735 5734 5732 5731 5730 5729 5727 5725 5724 5722 5720 5719 5717 5716 5715 5714 5712 5711 5710
5775 5773 5770 5767 5766 5763 5761 5759 5756 5755 5753 5750 5749 5746 5745 5745 5744 5742 5741 5739 5737 5736 5734 5733 5732 5731 5730 5729 5728 5727 5725 5723 5722 5720 5719 5717 5716 5714 5713 5712 5710 5709 5708
5775 5773 5770 5767 5765 5762 5760 5759 5757 5754 5751 5749 5744 5740 5740 5742 5741 5741 5740 5738 5736 5735 5733 5732 5730 5729 5728 5726 5725 5724 5723 5721 5719 5718 5716 5715 5713 5712 5711 5709 5708 5707 5706
5775 5773 5770 5767 5765 5762 5760 5758 5756 5752 5750 5749 5743 5736 5731 5732 5736 5739 5738 5737 5736 5735 5733 5731 5729 5727 5726 5724 5723 5722 5720 5719 5717 5715 5714 5712 5711 5710 5708 5707 5706 5705 5703
5775 5773 5771 5768 5766 5763 5760 5758 5757 5753 5749 5749 5748 5741 5731 5726 5729 5733 5735 5735 5734 5732 5731 5730 5727 5726 5724 5722 5721 5720 5718 5716 5714 5713 5711 5710 5708 5707 5705 5704 5703 5702 5701
5775 5773 5771 5769 5766 5764 5761 5760 5759 5756 5752 5747 5748 5747 5744 5739 5730 5726 5729 5731 5731 5730 5729 5728 5726 5725 5723 5721 5719 5717 5715 5713 5712 5710 5709 5707 5705 5703 5702 5700 5700 5699 5698
5775 5774 5772 5769 5767 5765 5763 5761 5759 5757 5754 5751 5748 5746 5743 5741 5737 5728 5723 5725 5726 5727 5727 5726 5725 5723 5721 5719 5717 5715 5713 5710 5709 5707 5705 5703 5701 5699 5698 5696 5696 5695 5693
5774 5773 5772 5769 5767 5765 5763 5761 5759 5757 5755 5753 5750 5747 5744 5739 5736 5731 5725 5722 5721 5723 5724 5724 5722 5720 5718 5716 5714 5712 5709 5707 5705 5703 5701 5699 5697 5695 5693 5691 5690 5689 5688
5772 5771 5771 5769 5767 5765 5763 5761 5759 5756 5755 5752 5750 5748 5746 5744 5741 5736 5728 5722 5719 5720 5720 5719 5719 5717 5715 5713 5710 5708 5706 5703 5701 5698 5696 5694 5692 5689 5687 5686 5685 5683 5682
5773 5772 5771 5768 5767 5765 5763 5761 5758 5756 5754 5752 5751 5749 5747 5745 5743 5739 5732 5725 5717 5714 5715 5714 5715 5714 5712 5709 5707 5704 5701 5699 5696 5694 5691 5688 5686 5684 5681 5680 5678 5677 5675
5775 5773 5770 5768 5766 5764 5762 5759 5756 5754 5753 5751 5750 5748 5746 5745 5743 5741 5736 5731 5721 5711 5709 5711 5710 5710 5708 5705 5703 5700 5697 5694 5691 5689 5686 5683 5681 5678 5675 5673 5672 5670 5668
5775 5772 5770 5767 5765 5763 5761 5758 5755 5754 5751 5750 5748 5746 5745 5744 5742 5740 5736 5732 5727 5719 5711 5711 5709 5708 5705 5702 5698 5695 5692 5689 5686 5683 5680 5677 5674 5672 5669 5667 5665 5663 5662
5775 5772 5769 5767 5764 5761 5759 5756 5753 5752 5749 5747 5746 5745 5743 5742 5740 5737 5735 5731 5727 5722 5713 5709 5707 5705 5701 5697 5693 5690 5687 5684 5681 5678 5675 5671 5669 5666 5663 5661 5658 5656 5654
5774 5771 5769 5766 5763 5760 5758 5754 5752 5750 5747 5744 5743 5742 5741 5740 5737 5735 5732 5729 5725 5722 5715 5707 5703 5700 5697 5693 5689 5685 5681 5678 5675 5672 5669 5665 5662 5659 5657 5654 5651 5649 5647
5772 5770 5767 5764 5761 5759 5756 5753 5751 5748 5746 5744 5742 5740 5738 5737 5734 5732 5729 5726 5723 5720 5714 5707 5700 5697 5693 5689 5684 5680 5676 5672 5669 5666 5663 5660 5657 5654 5651 5648 5645 5643 5640
5771 5768 5765 5763 5760 5758 5755 5753 5750 5747 5745 5743 5741 5739 5738 5735 5733 5730 5727 5724 5720 5715 5709 5703 5697 5692 5688 5684 5680 5675 5670 5666 5664 5661 5658 5654 5651 5648 5645 5642 5640 5637 5634
5770 5767 5764 5761 5758 5756 5754 5751 5748 5745 5743 5740 5739 5738 5737 5736 5733 5730 5726 5721 5716 5710 5704 5699 5693 5688 5684 5679 5676 5672 5666 5662 5659 5656 5652 5649 5646 5643 5640 5637 5635 5632 5629
5767 5765 5761 5758 5756 5755 5753 5751 5747 5743 5740 5738 5736 5735 5735 5733 5731 5728 5725 5720 5715 5708 5702 5696 5691 5686 5683 5679 5675 5670 5663 5657 5653 5652 5647 5643 5640 5637 5635 5632 5629 5626 5623
5763 5761 5758 5756 5753 5752 5750 5748 5745 5741 5738 5736 5734 5731 5731 5729 5727 5723 5719 5716 5712 5708 5704 5698 5691 5687 5683 5679 5673 5667 5662 5657 5653 5651 5644 5638 5635 5631 5630 5627 5624 5620 5617
5759 5757 5755 5752 5750 5749 5747 5744 5741 5738 5736 5734 5732 5730 5726 5723 5721 5717 5713 5709 5706 5703 5700 5696 5692 5688 5684 5680 5674 5669 5662 5655 5650 5646 5642 5634 5630 5627 5625 5622 5619 5615 5611
5755 5754 5752 5749 5746 5744 5743 5740 5737 5734 5731 5730 5729 5726 5723 5719 5717 5713 5708 5703 5699 5697 5695 5692 5688 5685 5681 5677 5671 5664 5656 5649 5643 5640 5637 5631 5626 5622 5619 5617 5614 5610 5606
5751 5749 5746 5745 5742 5740 5739 5736 5733 5729 5725 5723 5722 5721 5719 5716 5712 5708 5703 5698 5693 5691 5688 5684 5681 5678 5675 5671 5667 5662 5655 5647 5641 5635 5633 5627 5622 5617 5612 5611 5608 5605 5600